Time,TemperatureF,DewpointF,PressureIn,WindDirection,WindDirectionDegrees,WindSpeedMPH,WindSpeedGustMPH,Humidity,HourlyPrecipIn,Conditions,Clouds,dailyrainin,SoftwareType,DateUTC
2013-05-02 00:02:00,73.5,61.9,29.91,ENE,68,0.0,0.0,67,0.00,,,0.00,WUHU216HW,2013-05-02 05:02:00,
2013-05-02 00:07:00,73.4,61.7,29.92,ENE,68,0.0,0.0,67,0.00,,,0.00,WUHU216HW,2013-05-02 05:07:00,
2013-05-02 00:12:00,73.4,61.7,29.93,ENE,68,0.0,0.0,67,0.00,,,0.00,WUHU216HW,2013-05-02 05:12:00,
2013-05-02 00:17:00,73.2,61.6,29.94,ENE,68,0.0,0.0,67,0.00,,,0.00,WUHU216HW,2013-05-02 05:17:00,
2013-05-02 00:22:00,73.0,61.8,29.94,NNE,23,0.0,0.0,68,0.00,,,0.00,WUHU216HW,2013-05-02 05:22:00,
2013-05-02 00:27:00,72.8,61.7,29.95,North,0,0.0,3.5,68,0.00,,,0.00,WUHU216HW,2013-05-02 05:27:00,
2013-05-02 00:32:00,73.0,61.8,29.95,NE,45,0.0,3.5,68,0.00,,,0.00,WUHU216HW,2013-05-02 05:32:00,
2013-05-02 00:37:00,73.0,61.8,29.95,NE,45,0.0,0.0,68,0.00,,,0.00,WUHU216HW,2013-05-02 05:37:00,
2013-05-02 00:42:00,72.8,61.7,29.96,NNE,23,0.0,0.0,68,0.00,,,0.00,WUHU216HW,2013-05-02 05:42:00,
2013-05-02 00:47:00,72.6,61.9,29.96,North,0,0.0,0.0,69,0.00,,,0.00,WUHU216HW,2013-05-02 05:47:00,
2013-05-02 00:52:00,72.6,61.9,29.97,NNW,338,0.0,0.0,69,0.00,,,0.00,WUHU216HW,2013-05-02 05:52:00,
2013-05-02 00:57:00,72.5,61.7,29.97,NNW,338,0.0,0.0,69,0.00,,,0.00,WUHU216HW,2013-05-02 05:57:00,
2013-05-02 01:02:00,72.5,61.7,29.97,North,0,0.0,0.0,69,0.00,,,0.00,WUHU216HW,2013-05-02 06:02:00,
2013-05-02 01:07:00,72.3,61.6,29.98,North,0,0.0,0.0,69,0.00,,,0.00,WUHU216HW,2013-05-02 06:07:00,
2013-05-02 01:12:00,72.5,61.7,29.98,North,0,0.0,0.0,69,0.00,,,0.00,WUHU216HW,2013-05-02 06:12:00,
2013-05-02 01:17:00,72.3,61.6,29.98,North,0,0.0,0.0,69,0.00,,,0.00,WUHU216HW,2013-05-02 06:17:00,
2013-05-02 01:22:00,72.3,61.6,29.98,North,0,0.0,0.0,69,0.00,,,0.00,WUHU216HW,2013-05-02 06:22:00,
2013-05-02 01:27:00,72.1,61.4,29.99,North,0,0.0,0.0,69,0.00,,,0.00,WUHU216HW,2013-05-02 06:27:00,
2013-05-02 01:32:00,72.3,61.6,29.99,North,0,0.0,0.0,69,0.00,,,0.00,WUHU216HW,2013-05-02 06:32:00,
2013-05-02 01:37:00,72.1,61.4,29.99,East,90,0.0,0.0,69,0.00,,,0.00,WUHU216HW,2013-05-02 06:37:00,
2013-05-02 01:42:00,72.1,61.8,29.98,East,90,0.0,0.0,70,0.00,,,0.00,WUHU216HW,2013-05-02 06:42:00,
2013-05-02 01:47:00,72.1,61.8,29.97,East,90,0.0,0.0,70,0.00,,,0.00,WUHU216HW,2013-05-02 06:47:00,
2013-05-02 01:52:00,72.1,61.8,29.97,East,90,0.0,0.0,70,0.00,,,0.00,WUHU216HW,2013-05-02 06:52:00,
2013-05-02 01:57:00,72.1,61.4,29.97,North,0,0.0,0.0,69,0.00,,,0.00,WUHU216HW,2013-05-02 06:57:00,
2013-05-02 02:08:00,72.1,61.4,29.97,North,0,0.0,0.0,69,0.00,,,0.00,WUHU216HW,2013-05-02 07:08:00,
2013-05-02 02:13:00,71.7,61.5,29.98,NNW,338,0.0,0.0,70,0.00,,,0.00,WUHU216HW,2013-05-02 07:13:00,
2013-05-02 02:18:00,71.7,61.5,29.98,NNW,338,0.0,0.0,70,0.00,,,0.00,WUHU216HW,2013-05-02 07:18:00,
2013-05-02 02:23:00,71.7,61.5,29.98,NNW,338,0.0,0.0,70,0.00,,,0.00,WUHU216HW,2013-05-02 07:23:00,
2013-05-02 02:28:00,71.7,61.5,29.98,North,0,4.6,4.6,70,0.00,,,0.00,WUHU216HW,2013-05-02 07:28:00,
2013-05-02 02:33:00,71.7,61.5,29.98,North,0,0.0,4.6,70,0.00,,,0.00,WUHU216HW,2013-05-02 07:33:00,
2013-05-02 02:38:00,71.4,61.1,29.98,North,0,4.4,4.4,70,0.00,,,0.00,WUHU216HW,2013-05-02 07:38:00,
2013-05-02 02:43:00,71.4,61.1,29.98,North,0,0.0,4.4,70,0.00,,,0.00,WUHU216HW,2013-05-02 07:43:00,
2013-05-02 02:48:00,71.2,61.3,29.98,NNE,23,0.0,4.4,71,0.00,,,0.00,WUHU216HW,2013-05-02 07:48:00,
2013-05-02 02:53:00,71.2,61.3,29.98,NNE,23,0.0,0.0,71,0.00,,,0.00,WUHU216HW,2013-05-02 07:53:00,
2013-05-02 02:58:00,71.2,61.3,29.98,NNE,23,0.0,0.0,71,0.00,,,0.00,WUHU216HW,2013-05-02 07:58:00,
2013-05-02 03:08:00,71.2,61.3,29.98,NNE,23,0.0,0.0,71,0.00,,,0.00,WUHU216HW,2013-05-02 08:08:00,
2013-05-02 03:13:00,70.8,60.9,29.97,NNE,23,0.0,0.0,71,0.00,,,0.00,WUHU216HW,2013-05-02 08:13:00,
2013-05-02 03:18:00,70.8,60.9,29.97,North,0,3.5,3.5,71,0.00,,,0.00,WUHU216HW,2013-05-02 08:18:00,
2013-05-02 03:23:00,70.7,60.8,29.97,North,0,2.0,3.5,71,0.00,,,0.00,WUHU216HW,2013-05-02 08:23:00,
2013-05-02 03:28:00,70.5,60.6,29.97,NNW,338,0.0,3.5,71,0.00,,,0.00,WUHU216HW,2013-05-02 08:28:00,
2013-05-02 03:33:00,70.5,60.6,29.97,NNE,23,0.0,2.0,71,0.00,,,0.00,WUHU216HW,2013-05-02 08:33:00,
2013-05-02 03:38:00,70.5,60.6,29.98,North,0,0.0,0.0,71,0.00,,,0.00,WUHU216HW,2013-05-02 08:38:00,
2013-05-02 03:43:00,70.3,60.4,29.98,North,0,0.0,0.0,71,0.00,,,0.00,WUHU216HW,2013-05-02 08:43:00,
2013-05-02 03:48:00,69.6,58.1,29.99,West,270,0.0,4.0,67,0.00,,,0.00,WUHU216HW,2013-05-02 08:48:00,
2013-05-02 03:53:00,67.6,55.8,30.00,NNE,23,6.0,6.0,66,0.00,,,0.00,WUHU216HW,2013-05-02 08:53:00,
2013-05-02 03:58:00,66.7,54.9,30.00,WNW,293,0.0,6.0,66,0.00,,,0.00,WUHU216HW,2013-05-02 08:58:00,
2013-05-02 04:08:00,66.7,54.9,30.00,WNW,293,0.0,0.0,66,0.00,,,0.00,WUHU216HW,2013-05-02 09:08:00,
2013-05-02 04:13:00,65.4,53.7,30.01,NNW,338,0.0,0.0,66,0.00,,,0.00,WUHU216HW,2013-05-02 09:13:00,
2013-05-02 04:18:00,65.3,53.1,30.01,NNE,23,0.0,0.0,65,0.00,,,0.00,WUHU216HW,2013-05-02 09:18:00,
2013-05-02 04:23:00,64.5,52.5,30.02,NW,315,0.0,0.0,65,0.00,,,0.00,WUHU216HW,2013-05-02 09:23:00,
2013-05-02 04:28:00,64.2,52.1,30.02,NW,315,0.0,0.0,65,0.00,,,0.00,WUHU216HW,2013-05-02 09:28:00,
2013-05-02 04:33:00,64.0,51.9,30.02,WSW,248,0.0,0.0,65,0.00,,,0.00,WUHU216HW,2013-05-02 09:33:00,
2013-05-02 04:38:00,63.6,52.0,30.02,NW,315,3.3,3.3,66,0.00,,,0.00,WUHU216HW,2013-05-02 09:38:00,
2013-05-02 04:43:00,63.3,51.7,30.02,NW,315,0.0,3.3,66,0.00,,,0.00,WUHU216HW,2013-05-02 09:43:00,
2013-05-02 04:48:00,62.7,51.6,30.03,NNE,23,0.4,3.3,67,0.00,,,0.00,WUHU216HW,2013-05-02 09:48:00,
2013-05-02 04:53:00,62.7,51.6,30.03,NNW,338,0.0,0.4,67,0.00,,,0.00,WUHU216HW,2013-05-02 09:53:00,
2013-05-02 04:58:00,62.6,51.4,30.04,NW,315,0.0,0.4,67,0.00,,,0.00,WUHU216HW,2013-05-02 09:58:00,
2013-05-02 05:03:00,62.6,51.4,30.04,West,270,1.5,1.5,67,0.00,,,0.00,WUHU216HW,2013-05-02 10:03:00,
2013-05-02 05:08:00,59.7,49.5,30.05,NW,315,0.0,7.1,69,0.00,,,0.00,WUHU216HW,2013-05-02 10:08:00,
2013-05-02 05:13:00,59.7,49.5,30.05,NNW,338,0.0,7.1,69,0.00,,,0.00,WUHU216HW,2013-05-02 10:13:00,
2013-05-02 05:18:00,59.0,48.8,30.05,NW,315,0.0,0.0,69,0.00,,,0.00,WUHU216HW,2013-05-02 10:18:00,
2013-05-02 05:23:00,58.8,48.6,30.05,NW,315,0.0,0.0,69,0.00,,,0.00,WUHU216HW,2013-05-02 10:23:00,
2013-05-02 05:28:00,58.8,48.6,30.05,West,270,0.0,2.4,69,0.00,,,0.00,WUHU216HW,2013-05-02 10:28:00,
2013-05-02 05:33:00,58.8,48.6,30.06,NNW,338,0.0,2.4,69,0.00,,,0.00,WUHU216HW,2013-05-02 10:33:00,
2013-05-02 05:38:00,58.1,47.5,30.06,West,270,0.0,5.5,68,0.00,,,0.00,WUHU216HW,2013-05-02 10:38:00,
2013-05-02 05:43:00,58.2,47.7,30.07,WNW,293,0.0,5.5,68,0.00,,,0.00,WUHU216HW,2013-05-02 10:43:00,
2013-05-02 05:48:00,57.3,46.4,30.07,North,0,3.8,4.0,67,0.00,,,0.00,WUHU216HW,2013-05-02 10:48:00,
2013-05-02 05:53:00,57.0,46.1,30.07,North,0,4.0,4.9,67,0.00,,,0.00,WUHU216HW,2013-05-02 10:53:00,
2013-05-02 05:58:00,57.0,46.1,30.07,WNW,293,0.0,4.9,67,0.00,,,0.00,WUHU216HW,2013-05-02 10:58:00,
2013-05-02 06:08:00,57.0,46.1,30.08,WNW,293,0.0,0.0,67,0.00,,,0.00,WUHU216HW,2013-05-02 11:08:00,
2013-05-02 06:13:00,56.4,45.6,30.09,WNW,293,2.4,2.4,67,0.00,,,0.00,WUHU216HW,2013-05-02 11:13:00,
2013-05-02 06:18:00,56.4,45.6,30.10,WNW,293,0.0,5.3,67,0.00,,,0.00,WUHU216HW,2013-05-02 11:18:00,
2013-05-02 06:23:00,56.3,45.4,30.09,West,270,2.6,5.3,67,0.00,,,0.00,WUHU216HW,2013-05-02 11:23:00,
2013-05-02 06:28:00,56.1,45.6,30.10,NNW,338,0.0,2.6,68,0.00,,,0.00,WUHU216HW,2013-05-02 11:28:00,
2013-05-02 06:33:00,56.1,46.0,30.10,WSW,248,3.3,3.5,69,0.00,,,0.00,WUHU216HW,2013-05-02 11:33:00,
2013-05-02 06:38:00,55.7,46.1,30.10,NNW,338,0.0,3.5,70,0.00,,,0.00,WUHU216HW,2013-05-02 11:38:00,
2013-05-02 06:43:00,55.5,46.0,30.10,NE,45,0.0,3.3,70,0.00,,,0.00,WUHU216HW,2013-05-02 11:43:00,
2013-05-02 06:48:00,55.2,45.6,30.10,NNE,23,7.6,7.6,70,0.00,,,0.00,WUHU216HW,2013-05-02 11:48:00,
2013-05-02 06:53:00,54.8,46.0,30.10,North,0,3.3,7.6,72,0.00,,,0.00,WUHU216HW,2013-05-02 11:53:00,
2013-05-02 06:58:00,55.2,46.3,30.11,North,0,0.0,7.6,72,0.00,,,0.00,WUHU216HW,2013-05-02 11:58:00,
2013-05-02 07:03:00,55.0,46.1,30.12,NNE,23,2.2,3.3,72,0.00,,,0.00,WUHU216HW,2013-05-02 12:03:00,
2013-05-02 07:08:00,55.2,46.3,30.12,West,270,0.0,2.2,72,0.00,,,0.00,WUHU216HW,2013-05-02 12:08:00,
2013-05-02 07:13:00,54.1,45.3,30.12,NNW,338,0.0,2.2,72,0.00,,,0.00,WUHU216HW,2013-05-02 12:13:00,
2013-05-02 07:18:00,54.1,45.3,30.12,NW,315,0.0,7.1,72,0.00,,,0.00,WUHU216HW,2013-05-02 12:18:00,
2013-05-02 07:23:00,54.1,44.9,30.13,NNW,338,0.0,7.1,71,0.00,,,0.00,WUHU216HW,2013-05-02 12:23:00,
2013-05-02 07:28:00,54.5,44.9,30.13,WNW,293,3.8,4.2,70,0.00,,,0.00,WUHU216HW,2013-05-02 12:28:00,
2013-05-02 07:33:00,54.6,44.7,30.13,NNW,338,0.0,4.2,69,0.00,,,0.00,WUHU216HW,2013-05-02 12:33:00,
2013-05-02 07:38:00,54.1,43.7,30.13,West,270,3.1,4.9,68,0.00,,,0.00,WUHU216HW,2013-05-02 12:38:00,
2013-05-02 07:44:00,53.7,43.8,30.14,NNW,338,0.0,6.4,69,0.00,,,0.00,WUHU216HW,2013-05-02 12:44:00,
2013-05-02 07:49:00,53.4,43.8,30.14,North,0,5.8,6.4,70,0.00,,,0.00,WUHU216HW,2013-05-02 12:49:00,
2013-05-02 07:54:00,53.2,43.7,30.14,NW,315,2.9,5.8,70,0.00,,,0.00,WUHU216HW,2013-05-02 12:54:00,
2013-05-02 07:59:00,52.8,43.7,30.14,West,270,0.0,5.8,71,0.00,,,0.00,WUHU216HW,2013-05-02 12:59:00,
2013-05-02 08:04:00,52.8,44.1,30.14,West,270,0.0,5.1,72,0.00,,,0.00,WUHU216HW,2013-05-02 13:04:00,
2013-05-02 08:09:00,52.7,43.9,30.14,West,270,0.0,5.1,72,0.00,,,0.00,WUHU216HW,2013-05-02 13:09:00,
2013-05-02 08:14:00,52.7,43.9,30.15,NW,315,0.0,2.2,72,0.00,,,0.00,WUHU216HW,2013-05-02 13:14:00,
2013-05-02 08:19:00,53.2,44.0,30.15,NW,315,0.0,3.3,71,0.00,,,0.00,WUHU216HW,2013-05-02 13:19:00,
2013-05-02 08:24:00,53.2,44.0,30.15,NNW,338,0.0,3.3,71,0.00,,,0.00,WUHU216HW,2013-05-02 13:24:00,
2013-05-02 08:29:00,53.4,44.2,30.15,NNE,23,5.5,7.3,71,0.00,,,0.00,WUHU216HW,2013-05-02 13:29:00,
2013-05-02 08:34:00,53.4,43.8,30.15,NNE,23,7.1,7.3,70,0.00,,,0.00,WUHU216HW,2013-05-02 13:34:00,
2013-05-02 08:39:00,53.2,43.3,30.15,NNW,338,0.0,7.1,69,0.00,,,0.00,WUHU216HW,2013-05-02 13:39:00,
2013-05-02 08:44:00,53.2,43.3,30.15,ENE,68,3.1,3.1,69,0.00,,,0.00,WUHU216HW,2013-05-02 13:44:00,
2013-05-02 08:49:00,53.4,43.4,30.16,North,0,0.0,7.1,69,0.00,,,0.00,WUHU216HW,2013-05-02 13:49:00,
2013-05-02 08:54:00,53.4,43.4,30.16,NNW,338,0.0,7.1,69,0.00,,,0.00,WUHU216HW,2013-05-02 13:54:00,
2013-05-02 08:59:00,53.4,43.0,30.16,NW,315,0.0,5.5,68,0.00,,,0.00,WUHU216HW,2013-05-02 13:59:00,
2013-05-02 09:04:00,53.4,43.0,30.16,North,0,0.0,5.5,68,0.00,,,0.00,WUHU216HW,2013-05-02 14:04:00,
2013-05-02 09:09:00,53.4,43.0,30.16,North,0,1.5,4.9,68,0.00,,,0.00,WUHU216HW,2013-05-02 14:09:00,
2013-05-02 09:14:00,53.4,42.6,30.16,North,0,3.8,3.8,67,0.00,,,0.00,WUHU216HW,2013-05-02 14:14:00,
2013-05-02 09:19:00,53.2,42.5,30.17,NW,315,0.0,6.7,67,0.00,,,0.00,WUHU216HW,2013-05-02 14:19:00,
2013-05-02 09:24:00,53.4,43.0,30.17,North,0,0.0,6.7,68,0.00,,,0.00,WUHU216HW,2013-05-02 14:24:00,
2013-05-02 09:29:00,52.8,42.1,30.17,NNW,338,1.7,3.5,67,0.00,,,0.00,WUHU216HW,2013-05-02 14:29:00,
2013-05-02 09:34:00,52.8,42.6,30.16,WNW,293,0.0,1.7,68,0.00,,,0.00,WUHU216HW,2013-05-02 14:34:00,
2013-05-02 09:40:00,53.4,43.0,30.16,NNW,338,0.0,1.7,68,0.00,,,0.00,WUHU216HW,2013-05-02 14:40:00,
2013-05-02 09:45:00,53.4,43.0,30.17,West,270,0.0,0.0,68,0.00,,,0.00,WUHU216HW,2013-05-02 14:45:00,
2013-05-02 09:50:00,53.2,42.5,30.17,WNW,293,0.4,6.2,67,0.00,,,0.00,WUHU216HW,2013-05-02 14:50:00,
2013-05-02 09:55:00,52.8,42.1,30.18,NW,315,0.0,6.9,67,0.00,,,0.00,WUHU216HW,2013-05-02 14:55:00,
2013-05-02 10:00:00,52.8,42.6,30.18,NW,315,0.0,6.9,68,0.00,,,0.00,WUHU216HW,2013-05-02 15:00:00,
2013-05-02 10:05:00,52.8,42.6,30.18,NNE,23,0.0,2.4,68,0.00,,,0.00,WUHU216HW,2013-05-02 15:05:00,
2013-05-02 10:10:00,52.7,42.4,30.18,NNE,23,5.8,5.8,68,0.00,,,0.00,WUHU216HW,2013-05-02 15:10:00,
2013-05-02 10:15:00,52.8,42.1,30.18,NW,315,0.0,5.8,67,0.00,,,0.00,WUHU216HW,2013-05-02 15:15:00,
2013-05-02 10:20:00,52.5,41.8,30.18,NW,315,2.6,5.8,67,0.00,,,0.00,WUHU216HW,2013-05-02 15:20:00,
2013-05-02 10:25:00,52.8,42.1,30.18,West,270,0.0,2.6,67,0.00,,,0.00,WUHU216HW,2013-05-02 15:25:00,
2013-05-02 10:30:00,52.8,42.1,30.18,NW,315,0.0,2.6,67,0.00,,,0.00,WUHU216HW,2013-05-02 15:30:00,
2013-05-02 10:35:00,53.2,42.5,30.18,North,0,0.0,0.0,67,0.00,,,0.00,WUHU216HW,2013-05-02 15:35:00,
2013-05-02 10:40:00,53.4,42.2,30.18,WSW,248,0.0,0.0,66,0.00,,,0.00,WUHU216HW,2013-05-02 15:40:00,
2013-05-02 10:45:00,53.2,42.1,30.19,WNW,293,0.0,0.0,66,0.00,,,0.00,WUHU216HW,2013-05-02 15:45:00,
2013-05-02 10:50:00,52.8,41.7,30.19,NNW,338,3.8,3.8,66,0.00,,,0.00,WUHU216HW,2013-05-02 15:50:00,
2013-05-02 10:56:00,52.8,41.7,30.19,WSW,248,0.0,5.5,66,0.00,,,0.00,WUHU216HW,2013-05-02 15:56:00,
2013-05-02 11:01:00,52.5,41.4,30.19,WNW,293,2.9,5.5,66,0.00,,,0.00,WUHU216HW,2013-05-02 16:01:00,
2013-05-02 11:06:00,52.3,41.6,30.20,NNW,338,0.0,4.2,67,0.00,,,0.00,WUHU216HW,2013-05-02 16:06:00,
2013-05-02 11:11:00,52.3,41.2,30.20,WSW,248,6.4,6.4,66,0.00,,,0.00,WUHU216HW,2013-05-02 16:11:00,
2013-05-02 11:16:00,51.8,41.1,30.20,WNW,293,0.0,6.4,67,0.00,,,0.00,WUHU216HW,2013-05-02 16:16:00,
2013-05-02 11:21:00,52.1,41.5,30.20,NNE,23,3.1,6.4,67,0.00,,,0.00,WUHU216HW,2013-05-02 16:21:00,
2013-05-02 11:26:00,52.1,41.5,30.21,NW,315,0.0,3.3,67,0.00,,,0.00,WUHU216HW,2013-05-02 16:26:00,
2013-05-02 11:31:00,52.1,41.5,30.20,NNW,338,0.0,3.3,67,0.00,,,0.00,WUHU216HW,2013-05-02 16:31:00,
2013-05-02 11:36:00,51.9,41.3,30.20,North,0,0.0,0.0,67,0.00,,,0.00,WUHU216HW,2013-05-02 16:36:00,
2013-05-02 11:41:00,52.1,41.5,30.20,WNW,293,0.0,0.0,67,0.00,,,0.00,WUHU216HW,2013-05-02 16:41:00,
2013-05-02 11:46:00,52.3,41.6,30.21,WNW,293,4.6,4.6,67,0.00,,,0.00,WUHU216HW,2013-05-02 16:46:00,
2013-05-02 11:51:00,52.3,41.6,30.21,North,0,2.0,4.6,67,0.00,,,0.00,WUHU216HW,2013-05-02 16:51:00,
2013-05-02 11:56:00,52.3,41.6,30.22,WNW,293,0.0,4.6,67,0.00,,,0.00,WUHU216HW,2013-05-02 16:56:00,
2013-05-02 12:01:00,52.1,41.5,30.22,NNW,338,0.0,3.1,67,0.00,,,0.00,WUHU216HW,2013-05-02 17:01:00,
2013-05-02 12:06:00,52.1,41.5,30.22,North,0,2.6,3.1,67,0.00,,,0.00,WUHU216HW,2013-05-02 17:06:00,
2013-05-02 12:11:00,51.9,41.3,30.22,NNW,338,0.0,2.6,67,0.00,,,0.00,WUHU216HW,2013-05-02 17:11:00,
2013-05-02 12:16:00,51.9,41.3,30.22,NNE,23,5.5,5.5,67,0.00,,,0.00,WUHU216HW,2013-05-02 17:16:00,
2013-05-02 12:21:00,52.1,41.5,30.22,WNW,293,0.0,5.5,67,0.00,,,0.00,WUHU216HW,2013-05-02 17:21:00,
2013-05-02 12:26:00,52.1,41.5,30.22,North,0,5.1,5.5,67,0.00,,,0.00,WUHU216HW,2013-05-02 17:26:00,
2013-05-02 12:31:00,53.4,43.0,30.22,NNW,338,0.0,5.1,68,0.00,,,0.00,WUHU216HW,2013-05-02 17:31:00,
2013-05-02 12:36:00,54.3,43.1,30.22,NNE,23,1.7,1.7,66,0.00,,,0.00,WUHU216HW,2013-05-02 17:36:00,
2013-05-02 12:41:00,54.6,42.6,30.22,North,0,0.0,1.7,64,0.00,,,0.00,WUHU216HW,2013-05-02 17:41:00,
2013-05-02 12:46:00,54.3,42.3,30.22,NNE,23,0.0,2.9,64,0.00,,,0.00,WUHU216HW,2013-05-02 17:46:00,
2013-05-02 12:51:00,53.9,42.4,30.22,West,270,0.0,2.9,65,0.00,,,0.00,WUHU216HW,2013-05-02 17:51:00,
2013-05-02 12:56:00,53.9,42.0,30.22,NNW,338,6.0,6.0,64,0.00,,,0.00,WUHU216HW,2013-05-02 17:56:00,
2013-05-02 13:01:00,53.7,41.8,30.22,North,0,4.2,6.0,64,0.00,,,0.00,WUHU216HW,2013-05-02 18:01:00,
2013-05-02 13:06:00,54.3,42.3,30.21,North,0,0.0,4.2,64,0.00,,,0.00,WUHU216HW,2013-05-02 18:06:00,
2013-05-02 13:11:00,55.0,43.0,30.21,NNE,23,3.8,4.2,64,0.00,,,0.00,WUHU216HW,2013-05-02 18:11:00,
2013-05-02 13:16:00,54.3,41.5,30.22,West,270,0.0,8.2,62,0.00,,,0.00,WUHU216HW,2013-05-02 18:16:00,
2013-05-02 13:21:00,53.2,41.3,30.22,North,0,5.1,8.2,64,0.00,,,0.00,WUHU216HW,2013-05-02 18:21:00,
2013-05-02 13:26:00,53.0,40.7,30.22,WNW,293,6.0,6.0,63,0.00,,,0.00,WUHU216HW,2013-05-02 18:26:00,
2013-05-02 13:31:00,53.0,41.1,30.22,NW,315,0.0,6.0,64,0.00,,,0.00,WUHU216HW,2013-05-02 18:31:00,
2013-05-02 13:36:00,53.2,41.3,30.22,NNW,338,4.0,4.4,64,0.00,,,0.00,WUHU216HW,2013-05-02 18:36:00,
2013-05-02 13:41:00,53.4,41.5,30.22,NW,315,0.0,4.4,64,0.00,,,0.00,WUHU216HW,2013-05-02 18:41:00,
2013-05-02 13:47:00,52.8,40.5,30.21,NW,315,0.0,4.4,63,0.00,,,0.00,WUHU216HW,2013-05-02 18:47:00,
2013-05-02 13:52:00,52.7,40.4,30.23,NW,315,0.0,4.4,63,0.00,,,0.00,WUHU216HW,2013-05-02 18:52:00,
2013-05-02 13:57:00,52.3,40.0,30.23,West,270,0.0,5.1,63,0.00,,,0.00,WUHU216HW,2013-05-02 18:57:00,
2013-05-02 14:02:00,51.9,40.1,30.23,NW,315,0.0,5.1,64,0.00,,,0.00,WUHU216HW,2013-05-02 19:02:00,
2013-05-02 14:07:00,52.3,40.0,30.23,NNW,338,1.7,1.7,63,0.00,,,0.00,WUHU216HW,2013-05-02 19:07:00,
2013-05-02 14:12:00,52.3,40.0,30.23,West,270,0.0,1.7,63,0.00,,,0.00,WUHU216HW,2013-05-02 19:12:00,
2013-05-02 14:17:00,51.8,39.9,30.23,NNW,338,5.1,5.1,64,0.00,,,0.00,WUHU216HW,2013-05-02 19:17:00,
2013-05-02 14:22:00,50.7,39.3,30.23,West,270,2.4,5.1,65,0.00,,,0.00,WUHU216HW,2013-05-02 19:22:00,
2013-05-02 14:27:00,50.3,39.3,30.23,NW,315,0.0,7.1,66,0.00,,,0.00,WUHU216HW,2013-05-02 19:27:00,
2013-05-02 14:32:00,50.5,39.5,30.23,NW,315,0.0,7.1,66,0.00,,,0.00,WUHU216HW,2013-05-02 19:32:00,
2013-05-02 14:37:00,50.5,39.5,30.24,NW,315,0.0,7.3,66,0.00,,,0.00,WUHU216HW,2013-05-02 19:37:00,
2013-05-02 14:42:00,50.5,39.1,30.24,West,270,2.0,7.3,65,0.00,,,0.00,WUHU216HW,2013-05-02 19:42:00,
2013-05-02 14:47:00,49.8,38.8,30.24,North,0,6.2,6.2,66,0.00,,,0.00,WUHU216HW,2013-05-02 19:47:00,
2013-05-02 14:52:00,49.8,38.8,30.24,NW,315,0.0,6.2,66,0.00,,,0.00,WUHU216HW,2013-05-02 19:52:00,
2013-05-02 14:57:00,50.0,39.0,30.24,NNW,338,3.3,4.2,66,0.00,,,0.00,WUHU216HW,2013-05-02 19:57:00,
2013-05-02 15:02:00,50.3,39.3,30.25,NNW,338,5.3,5.3,66,0.00,,,0.00,WUHU216HW,2013-05-02 20:02:00,
2013-05-02 15:08:00,50.0,38.6,30.24,NNW,338,6.0,6.0,65,0.00,,,0.00,WUHU216HW,2013-05-02 20:08:00,
2013-05-02 15:13:00,49.8,38.4,30.24,WSW,248,0.0,6.0,65,0.00,,,0.00,WUHU216HW,2013-05-02 20:13:00,
2013-05-02 15:18:00,49.6,38.3,30.24,WNW,293,7.6,7.6,65,0.00,,,0.00,WUHU216HW,2013-05-02 20:18:00,
2013-05-02 15:23:00,49.1,38.1,30.24,North,0,2.9,7.6,66,0.00,,,0.00,WUHU216HW,2013-05-02 20:23:00,
2013-05-02 15:28:00,48.9,38.3,30.24,NNW,338,0.0,6.9,67,0.00,,,0.00,WUHU216HW,2013-05-02 20:28:00,
2013-05-02 15:33:00,49.2,38.7,30.24,NNW,338,3.8,5.8,67,0.00,,,0.00,WUHU216HW,2013-05-02 20:33:00,
2013-05-02 15:38:00,49.2,38.7,30.24,WNW,293,3.1,6.2,67,0.00,,,0.00,WUHU216HW,2013-05-02 20:38:00,
2013-05-02 15:43:00,49.1,38.5,30.24,NNW,338,0.0,6.2,67,0.00,,,0.00,WUHU216HW,2013-05-02 20:43:00,
2013-05-02 15:48:00,49.1,38.5,30.24,NNE,23,3.8,5.3,67,0.00,,,0.00,WUHU216HW,2013-05-02 20:48:00,
2013-05-02 15:53:00,49.1,38.5,30.24,WNW,293,0.0,5.3,67,0.00,,,0.00,WUHU216HW,2013-05-02 20:53:00,
2013-05-02 15:58:00,49.1,38.5,30.24,NNW,338,0.0,5.5,67,0.00,,,0.00,WUHU216HW,2013-05-02 20:58:00,
2013-05-02 16:03:00,48.9,38.7,30.25,NNW,338,0.0,6.0,68,0.00,,,0.00,WUHU216HW,2013-05-02 21:03:00,
2013-05-02 16:08:00,48.9,38.7,30.24,West,270,0.0,6.0,68,0.00,,,0.00,WUHU216HW,2013-05-02 21:08:00,
2013-05-02 16:13:00,48.9,39.5,30.25,WSW,248,4.6,4.6,70,0.00,,,0.00,WUHU216HW,2013-05-02 21:13:00,
2013-05-02 16:18:00,48.5,39.5,30.25,NNW,338,0.0,4.6,71,0.00,,,0.00,WUHU216HW,2013-05-02 21:18:00,
2013-05-02 16:23:00,48.3,39.3,30.25,WNW,293,2.4,5.1,71,0.00,,,0.00,WUHU216HW,2013-05-02 21:23:00,
2013-05-02 16:28:00,48.0,39.3,30.24,NW,315,4.4,5.1,72,0.00,,,0.00,WUHU216HW,2013-05-02 21:28:00,
2013-05-02 16:33:00,48.0,39.3,30.25,NNE,23,6.9,6.9,72,0.00,,,0.00,WUHU216HW,2013-05-02 21:33:00,
2013-05-02 16:38:00,48.3,39.7,30.24,WNW,293,8.0,8.0,72,0.00,,,0.00,WUHU216HW,2013-05-02 21:38:00,
2013-05-02 16:43:00,48.0,39.3,30.24,NNE,23,5.5,8.0,72,0.00,,,0.00,WUHU216HW,2013-05-02 21:43:00,
2013-05-02 16:49:00,48.0,39.3,30.24,NNW,338,0.0,5.5,72,0.00,,,0.00,WUHU216HW,2013-05-02 21:49:00,
2013-05-02 16:54:00,48.2,39.5,30.24,NNE,23,6.2,6.9,72,0.00,,,0.00,WUHU216HW,2013-05-02 21:54:00,
2013-05-02 16:59:00,48.2,39.5,30.24,NW,315,0.0,6.9,72,0.00,,,0.00,WUHU216HW,2013-05-02 21:59:00,
2013-05-02 17:04:00,48.3,39.7,30.24,NNE,23,5.1,7.1,72,0.00,,,0.00,WUHU216HW,2013-05-02 22:04:00,
2013-05-02 17:09:00,48.2,39.1,30.25,NNE,23,7.1,7.1,71,0.00,,,0.00,WUHU216HW,2013-05-02 22:09:00,
2013-05-02 17:14:00,48.0,39.0,30.25,NW,315,0.0,7.1,71,0.00,,,0.00,WUHU216HW,2013-05-02 22:14:00,
2013-05-02 17:19:00,47.4,38.8,30.25,NW,315,0.0,5.1,72,0.00,,,0.00,WUHU216HW,2013-05-02 22:19:00,
2013-05-02 17:24:00,46.9,38.3,30.25,NNE,23,6.2,6.2,72,0.00,,,0.00,WUHU216HW,2013-05-02 22:24:00,
2013-05-02 17:29:00,46.7,38.5,30.24,NNW,338,6.9,6.9,73,0.00,,,0.00,WUHU216HW,2013-05-02 22:29:00,
2013-05-02 17:34:00,46.5,38.4,30.25,West,270,4.0,6.9,73,0.00,,,0.00,WUHU216HW,2013-05-02 22:34:00,
2013-05-02 17:39:00,46.5,38.4,30.25,NNE,23,4.9,7.6,73,0.00,,,0.00,WUHU216HW,2013-05-02 22:39:00,
2013-05-02 17:44:00,46.7,38.5,30.25,West,270,0.0,7.6,73,0.00,,,0.00,WUHU216HW,2013-05-02 22:44:00,
2013-05-02 17:49:00,46.9,38.7,30.25,West,270,6.9,6.9,73,0.00,,,0.00,WUHU216HW,2013-05-02 22:49:00,
2013-05-02 17:54:00,46.9,38.7,30.25,West,270,7.8,7.8,73,0.00,,,0.00,WUHU216HW,2013-05-02 22:54:00,
2013-05-02 17:59:00,46.7,38.9,30.25,North,0,5.5,7.8,74,0.00,,,0.00,WUHU216HW,2013-05-02 22:59:00,
2013-05-02 18:04:00,46.5,38.7,30.25,NW,315,3.3,7.8,74,0.00,,,0.00,WUHU216HW,2013-05-02 23:04:00,
2013-05-02 18:09:00,46.2,38.4,30.25,NW,315,4.6,6.0,74,0.00,,,0.00,WUHU216HW,2013-05-02 23:09:00,
2013-05-02 18:14:00,46.2,38.0,30.25,NE,45,6.4,6.4,73,0.00,,,0.00,WUHU216HW,2013-05-02 23:14:00,
2013-05-02 18:19:00,46.5,38.0,30.25,NNE,23,0.0,6.4,72,0.00,,,0.00,WUHU216HW,2013-05-02 23:19:00,
2013-05-02 18:24:00,46.7,38.2,30.25,NE,45,4.4,6.4,72,0.00,,,0.00,WUHU216HW,2013-05-02 23:24:00,
2013-05-02 18:29:00,46.5,37.7,30.25,NNW,338,3.5,6.4,71,0.00,,,0.00,WUHU216HW,2013-05-02 23:29:00,
2013-05-02 18:34:00,46.4,37.5,30.25,North,0,4.2,4.4,71,0.00,,,0.00,WUHU216HW,2013-05-02 23:34:00,
2013-05-02 18:39:00,46.5,38.0,30.26,NNW,338,0.0,4.2,72,0.00,,,0.00,WUHU216HW,2013-05-02 23:39:00,
2013-05-02 18:44:00,46.4,38.2,30.26,NNE,23,4.6,4.6,73,0.00,,,0.00,WUHU216HW,2013-05-02 23:44:00,
2013-05-02 18:49:00,46.2,38.0,30.26,NNE,23,6.4,6.4,73,0.00,,,0.00,WUHU216HW,2013-05-02 23:49:00,
2013-05-02 18:54:00,46.2,37.3,30.26,North,0,6.4,6.4,71,0.00,,,0.00,WUHU216HW,2013-05-02 23:54:00,
2013-05-02 18:59:00,46.2,37.3,30.26,NW,315,0.0,6.4,71,0.00,,,0.00,WUHU216HW,2013-05-02 23:59:00,
2013-05-02 19:04:00,46.2,37.3,30.26,NNW,338,0.6,6.4,71,0.00,,,0.00,WUHU216HW,2013-05-03 00:04:00,
2013-05-02 19:09:00,46.7,37.8,30.26,North,0,4.6,4.6,71,0.00,,,0.00,WUHU216HW,2013-05-03 00:09:00,
2013-05-02 19:14:00,46.5,37.7,30.26,North,0,5.5,5.5,71,0.00,,,0.00,WUHU216HW,2013-05-03 00:14:00,
2013-05-02 19:19:00,46.5,37.7,30.26,WNW,293,3.3,5.5,71,0.00,,,0.00,WUHU216HW,2013-05-03 00:19:00,
2013-05-02 19:24:00,46.2,37.7,30.27,NNW,338,0.0,6.7,72,0.00,,,0.00,WUHU216HW,2013-05-03 00:24:00,
2013-05-02 19:29:00,46.2,37.7,30.26,WNW,293,6.2,6.7,72,0.00,,,0.00,WUHU216HW,2013-05-03 00:29:00,
2013-05-02 19:35:00,46.2,38.0,30.27,West,270,0.0,6.2,73,0.00,,,0.00,WUHU216HW,2013-05-03 00:35:00,
2013-05-02 19:40:00,46.2,38.0,30.27,NNW,338,0.0,6.2,73,0.00,,,0.00,WUHU216HW,2013-05-03 00:40:00,
2013-05-02 19:45:00,46.2,38.0,30.27,North,0,6.9,6.9,73,0.00,,,0.00,WUHU216HW,2013-05-03 00:45:00,
2013-05-02 19:50:00,46.2,38.0,30.27,West,270,0.0,6.9,73,0.00,,,0.00,WUHU216HW,2013-05-03 00:50:00,
2013-05-02 19:55:00,46.2,38.0,30.27,WNW,293,4.9,6.9,73,0.00,,,0.00,WUHU216HW,2013-05-03 00:55:00,
2013-05-02 20:00:00,46.0,37.5,30.27,North,0,2.6,7.1,72,0.00,,,0.00,WUHU216HW,2013-05-03 01:00:00,
2013-05-02 20:05:00,46.2,37.7,30.27,North,0,5.5,7.1,72,0.00,,,0.00,WUHU216HW,2013-05-03 01:05:00,
2013-05-02 20:10:00,46.2,37.3,30.28,NNW,338,1.7,5.5,71,0.00,,,0.00,WUHU216HW,2013-05-03 01:10:00,
2013-05-02 20:15:00,46.4,37.5,30.28,North,0,4.4,4.4,71,0.00,,,0.00,WUHU216HW,2013-05-03 01:15:00,
2013-05-02 20:20:00,46.2,37.3,30.28,NW,315,0.0,4.4,71,0.00,,,0.00,WUHU216HW,2013-05-03 01:20:00,
2013-05-02 20:25:00,46.4,37.2,30.28,North,0,0.0,5.5,70,0.00,,,0.00,WUHU216HW,2013-05-03 01:25:00,
2013-05-02 20:30:00,46.5,37.3,30.28,NNE,23,4.6,5.5,70,0.00,,,0.00,WUHU216HW,2013-05-03 01:30:00,
2013-05-02 20:35:00,46.2,37.0,30.28,NNW,338,0.0,5.5,70,0.00,,,0.00,WUHU216HW,2013-05-03 01:35:00,
2013-05-02 20:40:00,46.2,37.3,30.28,NE,45,4.6,5.5,71,0.00,,,0.00,WUHU216HW,2013-05-03 01:40:00,
2013-05-02 20:45:00,46.2,37.3,30.28,NNW,338,0.0,6.7,71,0.00,,,0.00,WUHU216HW,2013-05-03 01:45:00,
2013-05-02 20:50:00,46.2,37.3,30.28,NW,315,0.0,6.7,71,0.00,,,0.00,WUHU216HW,2013-05-03 01:50:00,
2013-05-02 20:55:00,46.2,37.0,30.28,NW,315,0.0,4.0,70,0.00,,,0.00,WUHU216HW,2013-05-03 01:55:00,
2013-05-02 21:00:00,46.2,37.0,30.28,West,270,0.0,4.0,70,0.00,,,0.00,WUHU216HW,2013-05-03 02:00:00,
2013-05-02 21:05:00,46.2,37.0,30.29,NNW,338,5.1,5.1,70,0.00,,,0.00,WUHU216HW,2013-05-03 02:05:00,
2013-05-02 21:10:00,46.4,36.8,30.28,NNW,338,0.0,5.1,69,0.00,,,0.00,WUHU216HW,2013-05-03 02:10:00,
2013-05-02 21:15:00,46.5,36.9,30.29,NNW,338,0.0,5.1,69,0.00,,,0.00,WUHU216HW,2013-05-03 02:15:00,
2013-05-02 21:20:00,46.5,36.9,30.29,NW,315,4.0,4.0,69,0.00,,,0.00,WUHU216HW,2013-05-03 02:20:00,
2013-05-02 21:25:00,46.7,37.1,30.29,NNE,23,0.0,4.0,69,0.00,,,0.00,WUHU216HW,2013-05-03 02:25:00,
2013-05-02 21:30:00,46.7,37.1,30.28,NW,315,0.0,4.9,69,0.00,,,0.00,WUHU216HW,2013-05-03 02:30:00,
2013-05-02 21:35:00,46.9,36.9,30.28,NNW,338,0.0,4.9,68,0.00,,,0.00,WUHU216HW,2013-05-03 02:35:00,
2013-05-02 21:40:00,47.4,37.4,30.29,North,0,2.2,4.0,68,0.00,,,0.00,WUHU216HW,2013-05-03 02:40:00,
2013-05-02 21:45:00,47.3,37.2,30.29,North,0,0.0,8.2,68,0.00,,,0.00,WUHU216HW,2013-05-03 02:45:00,
2013-05-02 21:50:00,47.4,37.4,30.29,North,0,5.3,8.2,68,0.00,,,0.00,WUHU216HW,2013-05-03 02:50:00,
2013-05-02 21:55:00,47.3,36.8,30.29,NNW,338,0.0,6.2,67,0.00,,,0.00,WUHU216HW,2013-05-03 02:55:00,
2013-05-02 22:00:00,47.6,37.5,30.29,NNE,23,0.0,6.2,68,0.00,,,0.00,WUHU216HW,2013-05-03 03:00:00,
2013-05-02 22:05:00,47.4,37.0,30.29,NNW,338,0.0,5.3,67,0.00,,,0.00,WUHU216HW,2013-05-03 03:05:00,
2013-05-02 22:10:00,47.3,37.2,30.29,North,0,3.3,4.0,68,0.00,,,0.00,WUHU216HW,2013-05-03 03:10:00,
2013-05-02 22:15:00,47.1,36.6,30.30,NW,315,0.0,3.3,67,0.00,,,0.00,WUHU216HW,2013-05-03 03:15:00,
2013-05-02 22:20:00,47.1,37.0,30.29,NW,315,0.0,0.0,68,0.00,,,0.00,WUHU216HW,2013-05-03 03:20:00,
2013-05-02 22:25:00,47.1,37.0,30.30,North,0,0.6,0.6,68,0.00,,,0.00,WUHU216HW,2013-05-03 03:25:00,
2013-05-02 22:30:00,47.1,37.0,30.30,North,0,3.5,5.3,68,0.00,,,0.00,WUHU216HW,2013-05-03 03:30:00,
2013-05-02 22:36:00,46.7,36.7,30.29,NNW,338,4.9,5.3,68,0.00,,,0.00,WUHU216HW,2013-05-03 03:36:00,
2013-05-02 22:41:00,46.5,36.9,30.29,NW,315,0.0,4.9,69,0.00,,,0.00,WUHU216HW,2013-05-03 03:41:00,
2013-05-02 22:46:00,46.5,36.9,30.29,North,0,4.2,4.9,69,0.00,,,0.00,WUHU216HW,2013-05-03 03:46:00,
2013-05-02 22:51:00,46.5,36.9,30.29,WNW,293,0.0,6.0,69,0.00,,,0.00,WUHU216HW,2013-05-03 03:51:00,
2013-05-02 22:56:00,46.7,37.1,30.29,NNW,338,2.0,6.0,69,0.00,,,0.00,WUHU216HW,2013-05-03 03:56:00,
2013-05-02 23:01:00,46.7,36.7,30.29,NNE,23,0.0,2.0,68,0.00,,,0.00,WUHU216HW,2013-05-03 04:01:00,
2013-05-02 23:02:00,46.9,36.9,30.28,NNE,23,0.0,2.0,68,0.00,,,0.00,WUHU216HW,2013-05-03 04:02:00,
2013-05-02 23:03:00,46.9,36.9,30.29,NNE,23,0.0,2.0,68,0.00,,,0.00,WUHU216HW,2013-05-03 04:03:00,
2013-05-02 23:08:00,47.1,36.6,30.29,NNE,23,0.0,2.4,67,0.00,,,0.00,WUHU216HW,2013-05-03 04:08:00,
2013-05-02 23:13:00,47.1,36.3,30.29,NNW,338,0.0,2.4,66,0.00,,,0.00,WUHU216HW,2013-05-03 04:13:00,
2013-05-02 23:18:00,47.1,36.3,30.29,NNW,338,4.2,4.2,66,0.00,,,0.00,WUHU216HW,2013-05-03 04:18:00,
2013-05-02 23:23:00,47.3,36.4,30.29,NW,315,0.0,5.1,66,0.00,,,0.00,WUHU216HW,2013-05-03 04:23:00,
2013-05-02 23:28:00,47.3,36.4,30.29,North,0,0.0,5.1,66,0.00,,,0.00,WUHU216HW,2013-05-03 04:28:00,
2013-05-02 23:33:00,47.4,36.2,30.28,North,0,0.0,0.0,65,0.00,,,0.00,WUHU216HW,2013-05-03 04:33:00,
2013-05-02 23:38:00,47.1,35.9,30.28,NNE,23,0.0,2.2,65,0.00,,,0.00,WUHU216HW,2013-05-03 04:38:00,
2013-05-02 23:43:00,47.1,35.9,30.28,North,0,0.0,2.2,65,0.00,,,0.00,WUHU216HW,2013-05-03 04:43:00,
2013-05-02 23:48:00,47.1,35.5,30.28,NNW,338,0.0,0.2,64,0.00,,,0.00,WUHU216HW,2013-05-03 04:48:00,
2013-05-02 23:53:00,46.9,35.3,30.28,NNW,338,5.3,5.3,64,0.00,,,0.00,WUHU216HW,2013-05-03 04:53:00,
2013-05-02 23:58:00,47.1,35.5,30.28,NW,315,0.0,5.3,64,0.00,,,0.00,WUHU216HW,2013-05-03 04:58:00,